KAC6767 OKKK-OBBI

Flight info

Callsign KAC6767
Flight time N/A
Altitude 27000
Route BOXIK B416 IMDOX P975 LONOS L703 KOBOK
Aircraft A321/M-SDE3FGHIRWY/LB1

Departure

Time 2026-04-28 07:08
Airport Kuwait International Airport (OKKK)

Arrival

Time N/A
Airport Bahrain International Airport (OBBI)
Time Latitude Longitude Altitude Speed Heading
2026-04-28 06:48 29.25017 47.96041 215 ft 0 kts 64°
2026-04-28 06:49 29.25013 47.96029 215 ft 2 kts 81°
2026-04-28 06:50 29.25014 47.96008 215 ft 2 kts 107°
2026-04-28 06:50 29.25019 47.95995 215 ft 2 kts 124°
2026-04-28 06:50 29.25031 47.95981 215 ft 2 kts 147°
2026-04-28 06:50 29.25044 47.95974 215 ft 2 kts 159°
2026-04-28 06:51 29.25058 47.95967 215 ft 2 kts 153°
2026-04-28 06:51 29.25071 47.95959 215 ft 2 kts 155°
2026-04-28 06:51 29.25076 47.95957 215 ft 0 kts 155°
2026-04-28 06:55 29.25075 47.95957 215 ft 0 kts 155°
2026-04-28 06:56 29.25071 47.95958 215 ft 0 kts 172°
2026-04-28 06:56 29.25061 47.95957 215 ft 1 kts 194°
2026-04-28 06:56 29.25060 47.95956 215 ft 0 kts 199°
2026-04-28 06:57 29.25048 47.95950 215 ft 5 kts 214°
2026-04-28 06:58 29.25045 47.95947 215 ft 0 kts 223°
2026-04-28 07:00 29.25030 47.95931 215 ft 8 kts 223°
2026-04-28 07:00 29.25009 47.95916 215 ft 0 kts 206°
2026-04-28 07:00 29.24998 47.95912 215 ft 3 kts 189°
2026-04-28 07:00 29.24966 47.95916 215 ft 6 kts 162°
2026-04-28 07:01 29.24922 47.95937 215 ft 9 kts 156°
2026-04-28 07:01 29.24840 47.95980 215 ft 18 kts 154°
2026-04-28 07:01 29.24737 47.96036 215 ft 17 kts 155°
2026-04-28 07:01 29.24684 47.96064 215 ft 0 kts 155°
2026-04-28 07:02 29.24671 47.96071 215 ft 13 kts 155°
2026-04-28 07:02 29.24576 47.96121 215 ft 12 kts 155°
2026-04-28 07:02 29.24518 47.96152 215 ft 17 kts 155°
2026-04-28 07:02 29.24408 47.96211 215 ft 19 kts 155°
2026-04-28 07:03 29.24321 47.96257 215 ft 10 kts 155°
2026-04-28 07:03 29.24268 47.96285 215 ft 7 kts 155°
2026-04-28 07:03 29.24248 47.96296 215 ft 1 kts 155°
2026-04-28 07:03 29.24194 47.96324 215 ft 5 kts 165°
2026-04-28 07:04 29.24167 47.96302 215 ft 5 kts 244°
2026-04-28 07:04 29.24154 47.96272 215 ft 0 kts 245°
2026-04-28 07:05 29.24150 47.96261 215 ft 2 kts 245°
2026-04-28 07:05 29.24139 47.96235 215 ft 7 kts 245°
2026-04-28 07:05 29.24116 47.96181 215 ft 7 kts 245°
2026-04-28 07:06 29.24105 47.96154 215 ft 3 kts 240°
2026-04-28 07:06 29.24081 47.96140 215 ft 4 kts 176°
2026-04-28 07:06 29.24067 47.96143 215 ft 0 kts 155°
2026-04-28 07:07 29.23953 47.96203 215 ft 52 kts 155°
2026-04-28 07:07 29.23538 47.96421 215 ft 108 kts 155°
2026-04-28 07:07 29.22723 47.96855 264 ft 155 kts 154°
2026-04-28 07:07 29.22149 47.97148 448 ft 164 kts 158°
2026-04-28 07:08 29.21095 47.97680 1124 ft 162 kts 154°
2026-04-28 07:08 29.20163 47.98214 1864 ft 150 kts 152°
2026-04-28 07:08 29.19414 47.98930 2228 ft 155 kts 124°
2026-04-28 07:08 29.18923 47.99921 2435 ft 165 kts 116°
2026-04-28 07:09 29.18536 48.00864 2625 ft 174 kts 115°
2026-04-28 07:09 29.18026 48.02085 2871 ft 186 kts 116°
2026-04-28 07:09 29.17441 48.03418 3137 ft 200 kts 117°
2026-04-28 07:09 29.16894 48.04617 3335 ft 214 kts 118°
2026-04-28 07:10 29.16110 48.06288 3667 ft 233 kts 118°
2026-04-28 07:10 29.15316 48.07954 3998 ft 251 kts 118°
2026-04-28 07:10 29.14467 48.09721 4396 ft 265 kts 119°
2026-04-28 07:10 29.13567 48.11585 5087 ft 269 kts 119°
2026-04-28 07:11 29.12683 48.13410 5814 ft 271 kts 119°
2026-04-28 07:11 29.11771 48.15290 6534 ft 274 kts 119°
2026-04-28 07:11 29.10846 48.17196 7262 ft 277 kts 119°
2026-04-28 07:11 29.09926 48.19087 7980 ft 280 kts 119°
2026-04-28 07:12 29.08986 48.21020 8693 ft 282 kts 119°
2026-04-28 07:12 29.08023 48.22998 9394 ft 285 kts 119°
2026-04-28 07:12 29.07079 48.24936 10057 ft 288 kts 119°
2026-04-28 07:12 29.06090 48.26965 10652 ft 294 kts 119°
2026-04-28 07:13 29.05073 48.29051 10952 ft 310 kts 119°
2026-04-28 07:13 29.04009 48.31234 11235 ft 326 kts 119°
2026-04-28 07:13 29.02889 48.33529 11574 ft 339 kts 119°
2026-04-28 07:13 29.01745 48.35872 12153 ft 343 kts 119°
2026-04-28 07:14 29.00589 48.38239 12794 ft 346 kts 119°
2026-04-28 07:14 28.99431 48.40608 13395 ft 349 kts 119°
2026-04-28 07:14 28.98435 48.42643 13893 ft 351 kts 119°
2026-04-28 07:14 28.97069 48.45433 14562 ft 355 kts 119°
2026-04-28 07:15 28.96035 48.47546 15055 ft 357 kts 119°
2026-04-28 07:15 28.94686 48.50297 15680 ft 361 kts 119°
2026-04-28 07:15 28.93450 48.52816 16235 ft 364 kts 119°
2026-04-28 07:15 28.92251 48.55259 16759 ft 366 kts 119°
2026-04-28 07:16 28.90974 48.57859 17301 ft 369 kts 119°
2026-04-28 07:16 28.89730 48.60390 17814 ft 372 kts 119°
2026-04-28 07:16 28.88477 48.62914 18312 ft 375 kts 119°
2026-04-28 07:16 28.87223 48.65438 18796 ft 378 kts 120°
2026-04-28 07:17 28.85959 48.67998 19272 ft 380 kts 119°
2026-04-28 07:17 28.84847 48.70262 19681 ft 383 kts 119°
2026-04-28 07:17 28.83394 48.73214 20199 ft 386 kts 119°
2026-04-28 07:17 28.82084 48.75872 20652 ft 388 kts 119°
2026-04-28 07:18 28.80772 48.78532 21092 ft 391 kts 119°
2026-04-28 07:18 28.79439 48.81241 21527 ft 394 kts 119°
2026-04-28 07:18 28.78086 48.84003 21957 ft 396 kts 119°
2026-04-28 07:18 28.76751 48.86729 22372 ft 399 kts 119°
2026-04-28 07:19 28.75394 48.89500 22779 ft 401 kts 119°
2026-04-28 07:19 28.74043 48.92254 23171 ft 404 kts 119°
2026-04-28 07:19 28.73042 48.94292 23455 ft 405 kts 119°
2026-04-28 07:19 28.71671 48.97084 23834 ft 408 kts 119°
2026-04-28 07:20 28.70447 48.99575 24162 ft 410 kts 119°
2026-04-28 07:20 28.69079 49.02356 24519 ft 412 kts 119°
2026-04-28 07:20 28.67886 49.04780 24821 ft 414 kts 119°
2026-04-28 07:20 28.66275 49.08051 25217 ft 416 kts 119°
2026-04-28 07:21 28.64871 49.10898 25553 ft 419 kts 119°
2026-04-28 07:21 28.63440 49.13800 25886 ft 421 kts 119°
2026-04-28 07:21 28.62020 49.16676 26209 ft 423 kts 119°
2026-04-28 07:22 28.59283 49.21913 26765 ft 427 kts 127°
2026-04-28 07:22 28.57048 49.24638 26964 ft 429 kts 140°
2026-04-28 07:22 28.54626 49.26595 26971 ft 428 kts 148°
2026-04-28 07:22 28.52089 49.28326 26974 ft 428 kts 148°
2026-04-28 07:23 28.49628 49.30171 26975 ft 428 kts 144°
2026-04-28 07:23 28.47275 49.32245 26977 ft 428 kts 140°
2026-04-28 07:23 28.44995 49.34436 26977 ft 428 kts 139°
2026-04-28 07:23 28.42772 49.36623 26977 ft 428 kts 139°
2026-04-28 07:24 28.40555 49.38821 26977 ft 428 kts 139°
2026-04-28 07:24 28.38352 49.41011 26977 ft 428 kts 139°
2026-04-28 07:24 28.36136 49.43212 26977 ft 428 kts 139°
2026-04-28 07:24 28.33905 49.45425 26977 ft 428 kts 139°
2026-04-28 07:25 28.31675 49.47634 26977 ft 428 kts 139°
2026-04-28 07:25 28.29717 49.49570 26977 ft 428 kts 139°
2026-04-28 07:25 28.27376 49.51879 26977 ft 428 kts 139°
2026-04-28 07:25 28.25164 49.54059 26977 ft 428 kts 139°
2026-04-28 07:26 28.23321 49.55875 26977 ft 428 kts 139°
2026-04-28 07:26 28.20999 49.58049 26977 ft 428 kts 142°
2026-04-28 07:26 28.18496 49.60220 26977 ft 428 kts 142°
2026-04-28 07:26 28.16115 49.62265 26977 ft 428 kts 142°
2026-04-28 07:27 28.14326 49.63802 26977 ft 428 kts 142°
2026-04-28 07:27 28.12078 49.65735 26977 ft 428 kts 143°
2026-04-28 07:27 28.10379 49.67203 26977 ft 428 kts 143°
2026-04-28 07:27 28.08189 49.69096 26977 ft 428 kts 143°
2026-04-28 07:28 28.05847 49.71113 26977 ft 428 kts 143°
2026-04-28 07:28 28.03459 49.73053 26977 ft 428 kts 145°
2026-04-28 07:28 28.01006 49.74970 26977 ft 428 kts 146°
2026-04-28 07:28 27.98570 49.76864 26977 ft 428 kts 146°
2026-04-28 07:29 27.96155 49.78740 26977 ft 428 kts 146°
2026-04-28 07:29 27.93693 49.80651 26977 ft 428 kts 146°
2026-04-28 07:29 27.91257 49.82543 26977 ft 428 kts 146°
2026-04-28 07:29 27.88818 49.84434 26977 ft 428 kts 146°
2026-04-28 07:30 27.86809 49.85984 26977 ft 428 kts 146°
2026-04-28 07:30 27.83997 49.88155 26977 ft 428 kts 146°
2026-04-28 07:30 27.81587 49.90019 26977 ft 428 kts 146°
2026-04-28 07:30 27.79149 49.91903 26977 ft 428 kts 146°
2026-04-28 07:31 27.76684 49.93809 26977 ft 428 kts 146°
2026-04-28 07:31 27.74269 49.95676 26977 ft 428 kts 146°
2026-04-28 07:31 27.71844 49.97549 26977 ft 428 kts 146°
2026-04-28 07:31 27.69425 49.99419 26977 ft 428 kts 146°
2026-04-28 07:32 27.67144 50.01180 26977 ft 428 kts 146°
2026-04-28 07:32 27.64500 50.03221 26977 ft 428 kts 146°
2026-04-28 07:32 27.62086 50.05084 26977 ft 428 kts 146°
2026-04-28 07:32 27.59658 50.06957 26977 ft 428 kts 146°
2026-04-28 07:33 27.57272 50.08796 26977 ft 428 kts 146°
2026-04-28 07:33 27.54793 50.10706 26977 ft 428 kts 146°
2026-04-28 07:33 27.52376 50.12568 26977 ft 428 kts 146°
2026-04-28 07:33 27.50284 50.14178 26977 ft 428 kts 146°
2026-04-28 07:34 27.49567 50.14729 26977 ft 428 kts 146°